Location: Chandolas
(44.4033°N, 4.2533°E)
Time: 14:33:36
(UTC+00:00)

Cosmos 2369 - Pass Details

Date: 28 February 2020
Orbit: 841 x 855 km, 71.0° (Epoch: 08 April)

Event Time Altitude Azimuth Distance (km) Brightness Sun altitude
Rises 04:38:16 0° 342° (NNW) 3,420 6.8 -19.5°
Reaches altitude 10° 04:41:13 10° 356° (N) 2,478 6.2 -19.0°
Maximum altitude 04:45:48 24° 50° (NE) 1,668 5.9 -18.2°
Drops below altitude 10° 04:50:21 10° 104° (ESE) 2,461 7.2 -17.4°
Sets 04:53:14 0° 117° (ESE) 3,390 7.8 -16.8°
